Location: Nelson
(41.2830°S, 173.2830°E)
Time: 04:53:40
(UTC+12:00)

SL-16 R/B - Pass Details

Date: 14 May 2021
Orbit: 842 x 847 km, 71.0° (Epoch: 16 June)

Event Time Altitude Azimuth Distance (km) Brightness Sun altitude
Rises 18:20:58 0° 21° (NNE) 3,391 5.3 -11.8°
Reaches altitude 10° 18:24:05 10° 38° (NE) 2,466 4.4 -12.4°
Maximum altitude 18:27:55 19° 81° (E) 1,922 3.5 -13.1°
Enters shadow 18:28:56 18° 95° (E) 1,970 3.5 -13.3°
